Location: Huntsville
(41.2590°N, 111.7678°W)
Time: 10:49:25
(UTC+00:00)

Courier 1B Rocket - Pass Details

Date: 20 June 2021
Orbit: 920 x 1202 km, 28.2° (Epoch: 29 July)

Event Time Altitude Azimuth Distance (km) Brightness Sun altitude
Rises 07:16:23 0° 252° (WSW) 3,583 7.8 -25.2°
Enters shadow 07:16:25 - 252° (WSW) 3,573 7.8 -25.2°
Reaches altitude 10° 07:21:44 10° 215° (SW) 2,605 - -25.3°
Maximum altitude 07:22:52 11° 204° (SSW) 2,565 - -25.3°
Drops below altitude 10° 07:24:00 10° 193° (SSW) 2,599 - -25.3°
Sets 07:29:19 0° 156° (SSE) 3,549 - -25.3°
